Regional Weather Roundup
Issued by NWS

Home | Current Version | Previous Version | Text Only | Print | Product List | Glossary On
Versions: 1 2 3 4 5 6 7 8 9 10 11 12 13 14 15 16 17 18 19 20 21 22 23 24 25 26 27
000
ASUS45 KBOU 230107
RWRCO

WEATHER ROUNDUP FOR COLORADO
NATIONAL WEATHER SERVICE DENVER/BOULDER CO
700 PM MDT SUN OCT 22 2017

NOTE: "FAIR" INDICATES FEW OR NO CLOUDS BELOW 12000 FEET WITH NO
SIGNIFICANT WEATHER AND/OR OBSTRUCTIONS TO VISIBILITY.

COZ001>005-013-030-031-230200-
...NORTHWEST COLORADO...

CITY           SKY/WX    TMP DP  RH WIND       PRES   REMARKS
CRAIG          FAIR      46  28  49 SW8       30.34R
HAYDEN         FAIR      48  30  49 SW5       30.36R
MEEKER         FAIR      50  28  42 VRB5      30.37R
RABBIT EARS PA MOCLDY    32  28  86 W14G28    30.44S WCI  22
STEAMBOAT SPGS FAIR      49  29  45 CALM      30.36S
WALDEN         NOT AVBL
$$

COZ006>008-011-230200-
...WEST CENTRAL VALLEYS...

CITY           SKY/WX    TMP DP  RH WIND       PRES   REMARKS
GRAND JUNCTION FAIR      54  18  24 N5        30.36R
MONTROSE       FAIR      54  25  32 CALM      30.41R
EAGLE          FAIR      52  24  33 W6        30.41R
RIFLE          FAIR      54  27  35 S5        30.37R
DELTA          FAIR      60  21  22 SW6       30.37R
NUCLA          FAIR      59  19  21 E3        30.44R
$$

COZ017>023-064>068-230200-
...SOUTHWEST COLORADO...

CITY           SKY/WX    TMP DP  RH WIND       PRES   REMARKS
DURANGO        FAIR      57  19  22 W10       30.38R
CORTEZ         FAIR      56  20  24 NW8       30.41R
PAGOSA SPRINGS FAIR      44  19  36 CALM      30.45R
TELLURIDE      FAIR      48  15  27 W7        30.55
WOLF CREEK PAS FAIR      32  14  47 S12       30.67R WCI  23
$$

COZ009-010-012-014-032>034-037-058>063-230200-
...CENTRAL COLORADO...

CITY           SKY/WX    TMP DP  RH WIND       PRES   REMARKS
ASPEN          FAIR      42  31  64 S8        30.44R
BUENA VISTA    FAIR      53  17  23 NW9G21    30.35R
COPPER MTN     MOCLDY    34  23  64 MISG      30.57R
BERTHOUD PASS  FAIR      30  21  69 NW46G61   30.49R WCI  12
COTTONWOOD PAS FAIR      52  18  25 W20G30    30.42S
GUNNISON       FAIR      53  15  22 W12       30.44R
KREMMLING      CLOUDY    54  23  30 W7        30.40R
LEADVILLE      FAIR      40  17  39 NW13G23   30.47R
MONARCH PASS   FAIR      32  16  51 W43G48    30.63R WCI  15
SALIDA         FAIR      56  21  25 W21G31    30.39R
SUNLIGHT       FAIR      32  19  59 SW17G29   30.57R WCI  21
WILKERSON PASS FAIR      39  18  41 NW10      30.49S
$$

COZ069>075-230200-
...SAN LUIS VALLEY/SANGRE DE CRISTO MOUNTAINS...

CITY           SKY/WX    TMP DP  RH WIND       PRES   REMARKS
ALAMOSA        FAIR      48  18  30 S3        30.38R
DEL NORTE      FAIR      47  19  33 CALM      30.41R
LA VETA PASS   FAIR      45  19  36 S29G41    30.55R
SAGUACHE       FAIR      52  14  22 N21       30.40S
$$

COZ035-036-038>040-230200-
...NORTHERN COLORADO FRONT RANGE...

CITY           SKY/WX    TMP DP  RH WIND       PRES   REMARKS
DENVER INTL AP MOCLDY    64  22  20 NW13      30.12R
DMNS CITY PARK   N/A     64  22  20 E8        30.13R
AURORA         MOCLDY    59  24  26 SE7       30.14R
FRONT RANGE AP MOCLDY    61  25  25 NW15G22   30.13R
ERIE MUNI ARPT FAIR      65  22  19 W16G23    30.15S
BOULDER MUN AP FAIR      63  25  23 E3        30.10R
CENTENNIAL     MOCLDY    57  23  26 S7        30.15R
BROOMFIELD     MOCLDY    64  23  20 W14       30.13R
FORT COLLINS   FAIR      55  29  36 S7        30.10R
LONGMONT       FAIR      65  25  22 SW7       30.11S
$$

COZ041-046-047-076>085-087-088-230200-
...PIKES PEAK/PALMER DIVIDE AND SOUTHERN FOOTHILLS...

CITY           SKY/WX    TMP DP  RH WIND       PRES   REMARKS
COLO. SPRINGS  MOCLDY    61  26  26 E5        30.18R
A. F. ACADEMY  FAIR      56  24  28 E5        30.18R
SCHRIEVER AFB  MOCLDY    56  26  31 CALM      30.18R
CHEYENNE MTN   FAIR      58  24  27 S5        30.16R
ELLICOTT         N/A    N/A N/A N/A S6        30.16S
FALCON         FAIR      53  23  31 NW3       30.22S
FORT CARSON    FAIR      59  26  28 CALM      30.15R
LIMON          FAIR      46  28  49 N5        30.13R
MONUMENT HILL  FAIR      46  25  42 CALM      30.24R
CANON CITY     FAIR      68  27  21 W7        30.14R
WALSENBURG     FAIR      64  21  19 W17G26    30.19R
TRINIDAD       FAIR      56  28  34 S9        30.17S
$$

COZ042>045-048>051-090-091-230200-
...NORTHEAST COLORADO...

CITY           SKY/WX    TMP DP  RH WIND       PRES   REMARKS
GREELEY ARPT   FAIR      63  28  26 SE3       30.09R
AKRON          FAIR      51  26  37 W12       30.07S
BURLINGTON     FAIR      55  25  31 SW9       30.08S
WRAY           NOT AVBL
YUMA           FAIR      48  19  32 SW6       30.05S
STERLING       NOT AVBL
HOLYOKE        FAIR      57  32  38 NW6       30.04R
FORT MORGAN    FAIR      59  23  25 CALM      30.08R
$$

COZ086-089-092>099-230200-
...SOUTHEAST COLORADO...

CITY           SKY/WX    TMP DP  RH WIND       PRES   REMARKS
PUEBLO         FAIR      62  26  25 E7        30.08S
LA JUNTA       FAIR      61  28  28 SE5       30.08S
LAMAR          FAIR      59  25  27 S3        30.05S
SPRINGFIELD      N/A     53  29  39 S9        30.11S
$$




USA.gov is the U.S. government's official web portal to all federal, state and local government web resources and services.